Regional Weather Roundup
Issued by NWS Boston, MA

Home | Current Version | Previous Version | Text Only | Print | Product List | Glossary On
Versions: 1 2 3 4 5 6 7 8 9 10 11 12 13 14 15 16 17 18 19 20 21 22 23 24 25 26 27 28 29 30 31 32 33 34 35 36 37 38 39 40 41 42 43 44 45 46 47 48 49 50
000
ASUS41 KBOX 301310
RWRBOX

REGIONAL WEATHER ROUNDUP
NATIONAL WEATHER SERVICE TAUNTON MA
800 AM EST FRI JAN 30 2015

NOTE:  "FAIR" INDICATES FEW OR NO CLOUDS BELOW 12,000 FEET WITH NO
SIGNIFICANT WEATHER AND/OR OBSTRUCTIONS TO VISIBILITY.  THE FOLLOWING
OBSERVATION LOCATIONS DO NOT REPORT PRESENT WEATHER...PROVINCETOWN...
SMITHFIELD...BLOCK ISLAND...KEENE...AND OXFORD.

MAZALL-301400-
EASTERN MASSACHUSETTS

CITY           SKY/WX    TMP DP  RH WIND       PRES   REMARKS
BOSTON         CLOUDY    32  29  88 S5        29.84F WCI  27
BEVERLY        CLOUDY    33  29  85 SW5       29.82F WCI  29
LAWRENCE       LGT SNOW  31  29  92 CALM      29.84F FOG
BEDFORD        LGT SNOW  29  28  96 W3        29.82F FOG
BLUE HILL        N/A     30  29  96 S9        29.79F WCI  22
NORWOOD        CLOUDY    30  28  92 CALM      29.83F
MARSHFIELD     CLOUDY    34  34 100 S8        29.85F FOG     WCI  27
PLYMOUTH       LGT RAIN  33  32  96 SE3       29.83F
TAUNTON        LGT RAIN  34  32  92 SE5       29.82F WCI  30
NEW BEDFORD    LGT RAIN  34  33  96 CALM      29.82F
$$

MAZALL-301400-
CAPE COD AND THE ISLANDS

CITY           SKY/WX    TMP DP  RH WIND       PRES   REMARKS
FALMOUTH       CLOUDY    36  34  93 S9        29.83F WCI  29
HYANNIS        CLOUDY    37  34  89 SE8       29.82F WCI  31
CHATHAM        LGT RAIN  38  34  85 S7        29.85F
PROVINCETOWN   CLOUDY    37  32  81 SE8       29.84F WCI  31
NANTUCKET      LGT RAIN  38  35  89 SE9       29.84F FOG     WCI  31
MARTHAS VNYRD  CLOUDY    37  34  89 SE6       29.83F
$$

MAZALL-301400-
CENTRAL AND WESTERN MASSACHUSETTS

CITY           SKY/WX    TMP DP  RH WIND       PRES   REMARKS
WORCESTER      LGT SNOW  27  27 100 SW3       29.77F VSB 1
FITCHBURG      CLOUDY    27  24  89 CALM      29.82F FOG
ORANGE         CLOUDY    27  25  92 CALM      29.80F FOG
SPRINGFIELD    LGT SNOW  27  26  94 CALM      29.81S FOG
WESTFIELD      LGT SNOW  28  25  88 CALM      29.82S FOG
NORTH ADAMS    LGT SNOW  29  24  82 W7        29.80S WCI  22
PITTSFIELD     LGT SNOW  26  24  92 SW5       29.76S VSB 3/4 WCI  20
$$

RIZALL-301400-
RHODE ISLAND

CITY           SKY/WX    TMP DP  RH WIND       PRES   REMARKS
PROVIDENCE     CLOUDY    32  30  92 CALM      29.83F FOG
NEWPORT        LGT RAIN  34  32  92 CALM      29.82F
BLOCK ISLAND   CLOUDY    37  30  75 SW6       29.81F
SMITHFIELD     CLOUDY    30  23  74 CALM      29.80F
WESTERLY       MIX PCPN  33  32  96 CALM      29.83F FOG
$$

CTZALL-301400-
CONNECTICUT

CITY           SKY/WX    TMP DP  RH WIND       PRES   REMARKS
BRADLEY INTL   LGT SNOW  29  26  89 CALM      29.81F FOG
HARTFORD       CLOUDY    31  29  92 SW5       29.83F FOG     WCI  26
BRIDGEPORT     LGT SNOW  32  31  96 SW5       29.84R FOG     WCI  27
DANBURY        FLURRIES  30  24  78 W5        29.83S WCI  25
GROTON         LGT SNOW  32  32 100 CALM      29.82F FOG
NEW HAVEN      LGT SNOW  32  30  92 CALM      29.83S FOG
CHESTER        LGT SNOW  32  32 100 W3        29.82R
MERIDEN        LGT SNOW  30  28  92 CALM      29.83S VSB 1
WILLIMANTIC    LGT SNOW  30  27  88 CALM      29.82F VSB 1
OXFORD         LGT SNOW  30  23  74 CALM      29.81S FOG
$$

MEZ002-015-021-024-NHZ003-005-008-011-012-014-VTZ005-008-301400-
NORTHERN NEW ENGLAND

CITY           SKY/WX    TMP DP  RH WIND       PRES   REMARKS
PORTLAND ME    LGT SNOW  29  27  92 NW3       29.84F VSB 1
BANGOR ME      LGT SNOW  19  15  84 NE5       29.88F VSB 1   WCI  12
CONCORD NH     MIX PCPN  28  25  88 CALM      29.82F FOG
MANCHESTER NH  FRZ RAIN  27  25  92 CALM      29.81F FOG
NASHUA NH      MIX PCPN  27  25  93 CALM      29.84F FOG
PORTSMOUTH NH  CLOUDY    28  26  94 NW5       29.82F FOG     WCI  23
JAFFREY NH     CLOUDY    27  25  92 CALM      29.77F
KEENE NH       CLOUDY    27  27 100 CALM      29.80F
BURLINGTON VT  LGT SNOW  28  25  88 S7        29.81R VSB 1   WCI  21
MT. WASHINGTON SNOW       9   9 100 W23         N/A  VSB 1/16WCI -12
$$

NYZ052-076-301400-
EASTERN NEW YORK

CITY           SKY/WX    TMP DP  RH WIND       PRES   REMARKS
ALBANY         LGT SNOW  28  24  85 S5        29.84S FOG     WCI  23
NEW YORK CITY  LGT SNOW  32  26  78 NW7       29.84S WCI  26
$$

ANZALL-301400-
MARINE OBSERVATIONS

STATION/POSITION TIME  TEMP    WIND        PRES    VSBY  WAVE
                       AIR SEA DIR/SP/G                  HT/PER
                 (UTC) (F)     (DEG/KT/KT) (MB)    (MI)  (FT/S)
BOSTON BUOY      1250   36 40  170/ 16/ 17 1010.0F         3/ 4
BUZZARDS BAY     1300          270/  4/  4 1010.5F
NANTUCKET SOUND  NOT AVBL
MASS BAY-STELLWA 1204   36 40  150/ 17/ 21   N/A    1 7/8  4/ 4
ISLE OF SHOALS   1300   37     180/ 19/ 21 1009.3F
S OF BLOCK IS    1208      42                N/A           3/ 4
$$

......................KEY.........................
  SKY/WX - SKY CONDITION/PRESENT WEATHER
  TMP    - TEMPERATURE IN FAHRENHEIT
  DWPT   - DEWPOINT IN FAHRENHEIT
  RH     - RELATIVE HUMIDITY IN PERCENT
  WIND   - DIRECTION AND SPEED IN MPH
  PRES   - MEAN SEA LEVEL PRESSURE IN INCHES OF HG
  WCI    - WIND CHILL INDEX
  VSB    - VISIBILITY IN MILES
  HX     - HEAT INDEX
  TC     - TEMPERATURE IN CELSIUS
  VRB    - VARIABLE WIND DIRECTION
  N/A    - NOT AVAILABLE



USA.gov is the U.S. government's official web portal to all federal, state and local government web resources and services.